| time (UTC) | temp F | wind direction | speed knots | gust knots | rain 1hr in | rain 24hr in | rain mn in | humidity % | barometer mb |
| 20260509215028 | 82 | 268 | 2.6 | 12.2 | 0.00 | 0.02 | 0.01 | 32 | 1008.5 |
| 20260509214540 | 82 | 197 | 1.7 | 11.3 | 0.00 | 0.02 | 0.01 | 32 | 1008.4 |
| 20260509214025 | 82 | 275 | 3.5 | 15.6 | 0.00 | 0.02 | 0.01 | 30 | 1008.3 |
| 20260509213527 | 83 | 279 | 4.3 | 15.6 | 0.00 | 0.02 | 0.01 | 30 | 1008.3 |
| 20260509213042 | 83 | 292 | 4.3 | 10.4 | 0.00 | 0.02 | 0.01 | 29 | 1008.3 |
| 20260509212526 | 83 | 0 | 2.6 | 11.3 | 0.00 | 0.02 | 0.01 | 30 | 1008.2 |
| 20260509212023 | 83 | 269 | 1.7 | 11.3 | 0.00 | 0.02 | 0.01 | 30 | 1008.2 |
| 20260509211543 | 83 | 277 | 4.3 | 11.3 | 0.00 | 0.02 | 0.01 | 28 | 1008.3 |
| 20260509211025 | 84 | 323 | 2.6 | 11.3 | 0.00 | 0.02 | 0.01 | 28 | 1008.3 |
| 20260509210525 | 84 | 333 | 3.5 | 15.6 | 0.00 | 0.02 | 0.01 | 29 | 1008.2 |
| 20260509210036 | 84 | 295 | 2.6 | 15.6 | 0.00 | 0.02 | 0.01 | 28 | 1008.2 |
| 20260509205525 | 84 | 296 | 4.3 | 15.6 | 0.00 | 0.02 | 0.01 | 27 | 1008.3 |
| 20260509205024 | 84 | 307 | 3.5 | 13.0 | 0.00 | 0.02 | 0.01 | 27 | 1008.4 |
| 20260509204555 | 85 | 284 | 4.3 | 12.2 | 0.00 | 0.02 | 0.01 | 27 | 1008.5 |
| 20260509204024 | 84 | 272 | 4.3 | 13.9 | 0.00 | 0.02 | 0.01 | 28 | 1008.5 |
| 20260509203524 | 84 | 252 | 4.3 | 13.9 | 0.00 | 0.02 | 0.01 | 29 | 1008.4 |
| 20260509203039 | 84 | 280 | 6.1 | 13.9 | 0.00 | 0.02 | 0.01 | 29 | 1008.6 |
| 20260509202523 | 84 | 270 | 4.3 | 13.9 | 0.00 | 0.02 | 0.01 | 30 | 1008.6 |
| 20260509202023 | 83 | 273 | 6.1 | 13.9 | 0.00 | 0.02 | 0.01 | 29 | 1008.7 |
| 20260509201541 | 84 | 225 | 3.5 | 8.7 | 0.00 | 0.02 | 0.01 | 30 | 1008.6 |
| 20260509201024 | 84 | 87 | 1.7 | 11.3 | 0.00 | 0.02 | 0.01 | 30 | 1008.6 |
| 20260509200525 | 83 | 0 | 1.7 | 11.3 | 0.00 | 0.02 | 0.01 | 31 | 1008.7 |
| 20260509200041 | 84 | 306 | 2.6 | 13.9 | 0.00 | 0.02 | 0.01 | 30 | 1008.7 |
| 20260509195524 | 83 | 284 | 5.2 | 13.9 | 0.00 | 0.03 | 0.01 | 30 | 1008.7 |
| 20260509195028 | 83 | 289 | 5.2 | 14.8 | 0.00 | 0.03 | 0.01 | 30 | 1008.9 |
| 20260509194541 | 83 | 303 | 7.0 | 14.8 | 0.00 | 0.03 | 0.01 | 29 | 1008.9 |
| 20260509194024 | 83 | 302 | 6.1 | 15.6 | 0.00 | 0.03 | 0.01 | 32 | 1009.0 |
| 20260509193525 | 82 | 268 | 4.3 | 15.6 | 0.00 | 0.03 | 0.01 | 33 | 1009.0 |
| 20260509193045 | 83 | 269 | 5.2 | 14.8 | 0.00 | 0.03 | 0.01 | 31 | 1009.1 |
| 20260509192527 | 82 | 306 | 6.1 | 14.8 | 0.00 | 0.03 | 0.01 | 33 | 1009.0 |
| 20260509192027 | 83 | 284 | 4.3 | 12.2 | 0.00 | 0.03 | 0.01 | 33 | 1009.1 |
| 20260509191546 | 82 | 310 | 1.7 | 13.9 | 0.00 | 0.03 | 0.01 | 34 | 1009.1 |
| 20260509191025 | 82 | 282 | 5.2 | 13.9 | 0.00 | 0.03 | 0.01 | 32 | 1009.1 |
| 20260509190527 | 82 | 292 | 5.2 | 14.8 | 0.00 | 0.03 | 0.01 | 33 | 1009.3 |
| 20260509190039 | 82 | 289 | 5.2 | 14.8 | 0.00 | 0.03 | 0.01 | 32 | 1009.4 |
| 20260509185525 | 83 | 287 | 4.3 | 12.2 | 0.00 | 0.03 | 0.01 | 33 | 1009.3 |
| 20260509185028 | 83 | 229 | 3.5 | 11.3 | 0.00 | 0.03 | 0.01 | 34 | 1009.3 |
| 20260509184538 | 83 | 301 | 2.6 | 10.4 | 0.00 | 0.03 | 0.01 | 34 | 1009.4 |
| 20260509184024 | 82 | 162 | 2.6 | 11.3 | 0.00 | 0.03 | 0.01 | 36 | 1009.5 |
| 20260509183525 | 82 | 281 | 2.6 | 13.0 | 0.00 | 0.03 | 0.01 | 35 | 1009.5 |
| 20260509183035 | 82 | 236 | 3.5 | 13.0 | 0.00 | 0.03 | 0.01 | 34 | 1009.5 |
| 20260509182524 | 83 | 260 | 2.6 | 9.6 | 0.00 | 0.03 | 0.01 | 36 | 1009.5 |
| 20260509182024 | 82 | 317 | 1.7 | 9.6 | 0.00 | 0.03 | 0.01 | 37 | 1009.6 |
| 20260509181535 | 82 | 261 | 1.7 | 9.6 | 0.00 | 0.03 | 0.01 | 36 | 1009.6 |
| 20260509181025 | 82 | 274 | 1.7 | 7.0 | 0.00 | 0.03 | 0.01 | 37 | 1009.7 |
| 20260509180526 | 82 | 308 | 1.7 | 7.0 | 0.00 | 0.03 | 0.01 | 37 | 1009.7 |
| 20260509180043 | 82 | 111 | 1.7 | 8.7 | 0.00 | 0.03 | 0.01 | 40 | 1009.8 |
| 20260509175527 | 81 | 277 | 1.7 | 10.4 | 0.00 | 0.03 | 0.01 | 41 | 1009.9 |
| 20260509175026 | 80 | 304 | 1.7 | 10.4 | 0.00 | 0.03 | 0.01 | 40 | 1009.8 |
| 20260509174536 | 80 | 300 | 3.5 | 10.4 | 0.00 | 0.03 | 0.01 | 40 | 1009.9 |
| 20260509174024 | 80 | 315 | 2.6 | 11.3 | 0.00 | 0.03 | 0.01 | 39 | 1010.1 |
| 20260509173522 | 79 | 298 | 4.3 | 11.3 | 0.00 | 0.03 | 0.01 | 42 | 1010.1 |
| 20260509173039 | 80 | 294 | 0.9 | 10.4 | 0.00 | 0.03 | 0.01 | 40 | 1010.1 |
| 20260509172521 | 78 | 0 | 3.5 | 10.4 | 0.00 | 0.03 | 0.01 | 41 | 1010.1 |
| 20260509172024 | 79 | 290 | 1.7 | 8.7 | 0.00 | 0.03 | 0.01 | 40 | 1010.2 |
| 20260509171538 | 79 | 285 | 1.7 | 8.7 | 0.00 | 0.03 | 0.01 | 42 | 1010.2 |
| 20260509171021 | 79 | 187 | 1.7 | 7.0 | 0.00 | 0.03 | 0.01 | 42 | 1010.2 |
| 20260509170523 | 78 | 200 | 1.7 | 7.8 | 0.00 | 0.03 | 0.01 | 43 | 1010.3 |
| 20260509170038 | 78 | 265 | 0.9 | 7.8 | 0.00 | 0.03 | 0.01 | 44 | 1010.3 |
| 20260509165524 | 78 | 285 | 2.6 | 7.8 | 0.00 | 0.03 | 0.01 | 41 | 1010.3 |
| 20260509165027 | 78 | 269 | 0.9 | 7.8 | 0.00 | 0.03 | 0.01 | 42 | 1010.3 |
| 20260509164536 | 78 | 0 | 0.9 | 7.8 | 0.00 | 0.03 | 0.01 | 44 | 1010.3 |
| 20260509164024 | 77 | 0 | 1.7 | 7.8 | 0.00 | 0.03 | 0.01 | 45 | 1010.2 |
| 20260509163522 | 77 | 280 | 0.9 | 7.8 | 0.00 | 0.03 | 0.01 | 45 | 1010.2 |
| 20260509163040 | 76 | 283 | 2.6 | 7.8 | 0.00 | 0.03 | 0.01 | 44 | 1010.3 |
| 20260509162522 | 77 | 301 | 0.0 | 7.8 | 0.00 | 0.03 | 0.01 | 45 | 1010.2 |
| 20260509162025 | 75 | 304 | 2.6 | 8.7 | 0.00 | 0.03 | 0.01 | 46 | 1010.2 |
| 20260509161536 | 75 | 254 | 1.7 | 8.7 | 0.00 | 0.03 | 0.01 | 46 | 1010.2 |
| 20260509161026 | 76 | 0 | 0.9 | 9.6 | 0.00 | 0.03 | 0.01 | 46 | 1010.2 |
| 20260509160524 | 75 | 231 | 0.9 | 11.3 | 0.00 | 0.03 | 0.01 | 46 | 1010.1 |
| 20260509160035 | 74 | 292 | 6.1 | 11.3 | 0.00 | 0.03 | 0.01 | 46 | 1010.1 |
| 20260509155522 | 74 | 296 | 2.6 | 7.0 | 0.00 | 0.03 | 0.01 | 48 | 1010.1 |
| 20260509155022 | 74 | 291 | 1.7 | 8.7 | 0.00 | 0.03 | 0.01 | 48 | 1010.1 |
| 20260509154536 | 73 | 271 | 0.9 | 9.6 | 0.00 | 0.03 | 0.01 | 52 | 1010.1 |
| 20260509154024 | 73 | 296 | 3.5 | 9.6 | 0.00 | 0.03 | 0.01 | 49 | 1010.2 |
| 20260509153522 | 72 | 303 | 1.7 | 9.6 | 0.00 | 0.03 | 0.01 | 49 | 1010.2 |
| 20260509153036 | 72 | 296 | 0.9 | 13.0 | 0.00 | 0.03 | 0.01 | 52 | 1010.2 |
| 20260509152524 | 71 | 0 | 0.9 | 13.0 | 0.00 | 0.03 | 0.01 | 55 | 1010.2 |
| 20260509152024 | 70 | 295 | 6.1 | 13.0 | 0.00 | 0.03 | 0.01 | 53 | 1010.3 |
| 20260509151535 | 71 | 347 | 0.0 | 12.2 | 0.00 | 0.03 | 0.01 | 56 | 1010.2 |
| 20260509151023 | 70 | 278 | 1.7 | 12.2 | 0.00 | 0.03 | 0.01 | 56 | 1010.2 |
| 20260509150523 | 69 | 273 | 1.7 | 8.7 | 0.00 | 0.03 | 0.01 | 57 | 1010.2 |
| 20260509150036 | 69 | 0 | 0.9 | 8.7 | 0.00 | 0.03 | 0.01 | 61 | 1010.2 |
| 20260509145523 | 69 | 0 | 0.0 | 8.7 | 0.00 | 0.03 | 0.01 | 60 | 1010.1 |
| 20260509145023 | 68 | 277 | 0.9 | 7.0 | 0.00 | 0.03 | 0.01 | 58 | 1010.2 |
| 20260509144544 | 68 | 0 | 0.0 | 3.5 | 0.00 | 0.03 | 0.01 | 61 | 1010.1 |
| 20260509144023 | 67 | 0 | 0.0 | 4.3 | 0.00 | 0.03 | 0.01 | 64 | 1010.2 |
| 20260509143527 | 66 | 0 | 0.0 | 4.3 | 0.00 | 0.03 | 0.01 | 64 | 1010.2 |
| 20260509143039 | 66 | 254 | 0.0 | 3.5 | 0.00 | 0.03 | 0.01 | 64 | 1010.2 |
| 20260509142524 | 65 | 297 | 0.0 | 7.0 | 0.00 | 0.03 | 0.01 | 67 | 1010.3 |
| 20260509142023 | 65 | 0 | 0.0 | 7.0 | 0.00 | 0.03 | 0.01 | 67 | 1010.2 |
| 20260509141539 | 65 | 310 | 0.0 | 2.6 | 0.00 | 0.03 | 0.01 | 68 | 1010.1 |
| 20260509141024 | 64 | 0 | 0.0 | 6.1 | 0.00 | 0.03 | 0.01 | 68 | 1010.3 |
| 20260509140523 | 63 | 284 | 0.0 | 6.1 | 0.00 | 0.03 | 0.01 | 71 | 1010.2 |
| 20260509140054 | 63 | 0 | 0.0 | 1.7 | 0.00 | 0.03 | 0.01 | 71 | 1010.2 |
| 20260509135526 | 62 | 0 | 0.0 | 3.5 | 0.00 | 0.03 | 0.01 | 73 | 1010.2 |
| 20260509135026 | 62 | 0 | 0.0 | 3.5 | 0.00 | 0.03 | 0.01 | 74 | 1010.2 |
| 20260509134537 | 61 | 0 | 0.0 | 1.7 | 0.00 | 0.03 | 0.01 | 75 | 1010.1 |
| 20260509134023 | 60 | 263 | 0.0 | 1.7 | 0.00 | 0.03 | 0.01 | 77 | 1010.1 |
| 20260509133521 | 59 | 0 | 0.0 | 1.7 | 0.00 | 0.03 | 0.01 | 78 | 1010.1 |
| 20260509133036 | 59 | 266 | 0.0 | 0.9 | 0.00 | 0.03 | 0.01 | 79 | 1010.1 |
| 20260509132522 | 58 | 0 | 0.0 | 1.7 | 0.00 | 0.03 | 0.01 | 81 | 1010.1 |
| 20260509132023 | 58 | 0 | 0.0 | 3.5 | 0.00 | 0.03 | 0.01 | 82 | 1010.2 |
| 20260509131545 | 57 | 0 | 0.0 | 3.5 | 0.00 | 0.03 | 0.01 | 84 | 1010.2 |
| 20260509131023 | 56 | 0 | 0.0 | 0.9 | 0.00 | 0.03 | 0.01 | 85 | 1010.1 |
| 20260509130523 | 55 | 0 | 0.0 | 3.5 | 0.00 | 0.03 | 0.01 | 86 | 1010.2 |
| 20260509130035 | 55 | 0 | 0.0 | 3.5 | 0.00 | 0.03 | 0.01 | 87 | 1010.2 |
| 20260509125527 | 55 | 0 | 0.0 | 1.7 | 0.00 | 0.03 | 0.01 | 87 | 1010.1 |
| 20260509125026 | 54 | 0 | 0.0 | 1.7 | 0.00 | 0.03 | 0.01 | 88 | 1010.1 |
| 20260509124542 | 54 | 0 | 0.0 | 3.5 | 0.00 | 0.03 | 0.01 | 89 | 1009.9 |
| 20260509124023 | 53 | 0 | 0.0 | 3.5 | 0.00 | 0.03 | 0.01 | 89 | 1009.9 |
| 20260509123523 | 53 | 0 | 0.0 | 0.9 | 0.00 | 0.03 | 0.01 | 89 | 1009.9 |
| 20260509123037 | 53 | 0 | 0.0 | 0.0 | 0.00 | 0.03 | 0.01 | 89 | 1009.8 |
| 20260509122522 | 53 | 0 | 0.0 | 0.0 | 0.00 | 0.03 | 0.01 | 89 | 1009.8 |
| 20260509122020 | 52 | 0 | 0.0 | 3.5 | 0.00 | 0.03 | 0.01 | 89 | 1009.7 |
| 20260509121551 | 52 | 0 | 0.0 | 3.5 | 0.00 | 0.03 | 0.01 | 90 | 1009.7 |
| 20260509121031 | 52 | 0 | 0.0 | 3.5 | 0.00 | 0.03 | 0.01 | 89 | 1009.7 |
| 20260509120523 | 51 | 0 | 0.0 | 3.5 | 0.00 | 0.03 | 0.01 | 90 | 1009.6 |
| 20260509120038 | 51 | 0 | 0.0 | 0.0 | 0.00 | 0.03 | 0.01 | 90 | 1009.7 |
| 20260509115523 | 51 | 0 | 0.0 | 0.0 | 0.00 | 0.03 | 0.01 | 90 | 1009.7 |
| 20260509115023 | 51 | 0 | 0.0 | 0.0 | 0.00 | 0.03 | 0.01 | 90 | 1009.6 |
| 20260509114535 | 51 | 0 | 0.0 | 0.0 | 0.01 | 0.03 | 0.01 | 90 | 1009.5 |
| 20260509114023 | 51 | 0 | 0.0 | 0.0 | 0.01 | 0.03 | 0.01 | 89 | 1009.5 |
| 20260509113522 | 51 | 0 | 0.0 | 0.0 | 0.01 | 0.03 | 0.01 | 89 | 1009.4 |
| 20260509113034 | 51 | 0 | 0.0 | 0.0 | 0.01 | 0.03 | 0.01 | 90 | 1009.3 |
| 20260509112521 | 51 | 0 | 0.0 | 0.0 | 0.01 | 0.03 | 0.01 | 90 | 1009.3 |
| 20260509112023 | 51 | 0 | 0.0 | 0.0 | 0.01 | 0.03 | 0.01 | 90 | 1009.4 |
| 20260509111538 | 51 | 0 | 0.0 | 0.0 | 0.01 | 0.03 | 0.01 | 89 | 1009.3 |
| 20260509111024 | 51 | 0 | 0.0 | 0.9 | 0.01 | 0.03 | 0.01 | 89 | 1009.2 |
| 20260509110523 | 51 | 0 | 0.0 | 0.9 | 0.01 | 0.03 | 0.01 | 89 | 1009.3 |
| 20260509110038 | 51 | 0 | 0.0 | 0.0 | 0.01 | 0.03 | 0.01 | 90 | 1009.3 |
| 20260509105525 | 51 | 0 | 0.0 | 0.0 | 0.01 | 0.03 | 0.01 | 90 | 1009.1 |
| 20260509105023 | 51 | 0 | 0.0 | 0.0 | 0.01 | 0.03 | 0.01 | 90 | 1009.1 |
| 20260509104537 | 51 | 0 | 0.0 | 0.0 | 0.00 | 0.02 | 0.00 | 89 | 1009.1 |
| 20260509104024 | 52 | 0 | 0.0 | 0.0 | 0.00 | 0.02 | 0.00 | 89 | 1009.0 |
| 20260509103526 | 52 | 0 | 0.0 | 0.0 | 0.00 | 0.02 | 0.00 | 90 | 1008.9 |
| 20260509103037 | 52 | 0 | 0.0 | 0.0 | 0.00 | 0.02 | 0.00 | 89 | 1008.9 |
| 20260509102525 | 52 | 0 | 0.0 | 0.0 | 0.00 | 0.02 | 0.00 | 89 | 1008.8 |
| 20260509102023 | 52 | 0 | 0.0 | 0.0 | 0.00 | 0.02 | 0.00 | 89 | 1008.8 |
| 20260509101537 | 52 | 0 | 0.0 | 0.0 | 0.00 | 0.02 | 0.00 | 89 | 1008.9 |
| 20260509101025 | 52 | 0 | 0.0 | 0.0 | 0.00 | 0.02 | 0.00 | 89 | 1008.9 |
| 20260509100523 | 52 | 0 | 0.0 | 0.0 | 0.00 | 0.02 | 0.00 | 89 | 1008.9 |
| 20260509100038 | 52 | 0 | 0.0 | 0.0 | 0.00 | 0.02 | 0.00 | 89 | 1008.8 |
| 20260509095526 | 52 | 0 | 0.0 | 0.0 | 0.00 | 0.02 | 0.00 | 89 | 1008.9 |
| 20260509095024 | 52 | 0 | 0.0 | 0.0 | 0.00 | 0.02 | 0.00 | 89 | 1008.9 |
| 20260509094538 | 52 | 0 | 0.0 | 0.0 | 0.00 | 0.02 | 0.00 | 89 | 1008.9 |
| 20260509094023 | 52 | 0 | 0.0 | 0.0 | 0.00 | 0.02 | 0.00 | 89 | 1008.9 |
| 20260509093526 | 53 | 0 | 0.0 | 0.0 | 0.00 | 0.02 | 0.00 | 89 | 1008.9 |
| 20260509093038 | 53 | 0 | 0.0 | 0.0 | 0.00 | 0.02 | 0.00 | 89 | 1008.9 |
| 20260509092525 | 53 | 0 | 0.0 | 0.0 | 0.00 | 0.02 | 0.00 | 89 | 1008.9 |
| 20260509092025 | 53 | 0 | 0.0 | 0.0 | 0.00 | 0.02 | 0.00 | 89 | 1008.9 |
| 20260509091536 | 53 | 0 | 0.0 | 0.0 | 0.00 | 0.02 | 0.00 | 89 | 1009.0 |
| 20260509091025 | 53 | 0 | 0.0 | 0.0 | 0.00 | 0.02 | 0.00 | 89 | 1009.0 |
| 20260509090526 | 53 | 0 | 0.0 | 0.0 | 0.00 | 0.02 | 0.00 | 89 | 1009.0 |
| 20260509090035 | 53 | 0 | 0.0 | 0.0 | 0.00 | 0.02 | 0.00 | 89 | 1009.1 |
| 20260509085525 | 53 | 0 | 0.0 | 0.0 | 0.00 | 0.02 | 0.00 | 89 | 1009.1 |
| 20260509085026 | 53 | 0 | 0.0 | 0.0 | 0.00 | 0.02 | 0.00 | 89 | 1009.1 |
| 20260509084544 | 53 | 0 | 0.0 | 0.0 | 0.00 | 0.02 | 0.00 | 89 | 1009.0 |
| 20260509084025 | 53 | 0 | 0.0 | 0.0 | 0.00 | 0.02 | 0.00 | 89 | 1009.0 |
| 20260509083524 | 54 | 0 | 0.0 | 0.0 | 0.00 | 0.02 | 0.00 | 89 | 1009.0 |
| 20260509083046 | 54 | 0 | 0.0 | 0.0 | 0.00 | 0.02 | 0.00 | 89 | 1009.0 |
| 20260509082526 | 54 | 0 | 0.0 | 0.0 | 0.00 | 0.02 | 0.00 | 89 | 1009.0 |
| 20260509082026 | 54 | 0 | 0.0 | 1.7 | 0.00 | 0.02 | 0.00 | 89 | 1008.9 |
| 20260509081536 | 54 | 0 | 0.0 | 4.3 | 0.00 | 0.02 | 0.00 | 89 | 1008.9 |
| 20260509081023 | 54 | 0 | 0.0 | 4.3 | 0.00 | 0.02 | 0.00 | 89 | 1009.0 |
| 20260509080523 | 54 | 0 | 0.0 | 1.7 | 0.00 | 0.02 | 0.00 | 89 | 1008.9 |
| 20260509080037 | 54 | 0 | 0.0 | 0.0 | 0.00 | 0.02 | 0.00 | 89 | 1008.9 |
| 20260509075525 | 53 | 0 | 0.0 | 0.0 | 0.00 | 0.02 | 0.00 | 89 | 1008.8 |
| 20260509075024 | 53 | 0 | 0.0 | 0.0 | 0.00 | 0.02 | 0.00 | 89 | 1009.0 |
| 20260509074537 | 53 | 0 | 0.0 | 0.9 | 0.00 | 0.02 | 0.00 | 89 | 1009.0 |
| 20260509074023 | 53 | 0 | 0.0 | 0.9 | 0.00 | 0.02 | 0.00 | 89 | 1008.9 |
| 20260509073523 | 53 | 0 | 0.0 | 0.0 | 0.00 | 0.02 | 0.00 | 89 | 1009.1 |
| 20260509073036 | 53 | 0 | 0.0 | 0.0 | 0.00 | 0.02 | 0.00 | 89 | 1009.2 |
| 20260509072521 | 53 | 0 | 0.0 | 0.0 | 0.00 | 0.02 | 0.00 | 89 | 1009.2 |
| 20260509072022 | 53 | 0 | 0.0 | 0.0 | 0.00 | 0.02 | 0.00 | 89 | 1009.2 |
| 20260509071542 | 52 | 0 | 0.0 | 0.0 | 0.00 | 0.02 | 0.00 | 89 | 1009.2 |
| 20260509071023 | 52 | 0 | 0.0 | 0.0 | 0.00 | 0.02 | 0.00 | 89 | 1009.3 |
| 20260509070523 | 52 | 0 | 0.0 | 0.0 | 0.00 | 0.02 | 0.00 | 89 | 1009.2 |
| 20260509070037 | 52 | 0 | 0.0 | 0.0 | 0.00 | 0.02 | 0.00 | 89 | 1009.3 |
| 20260509065522 | 53 | 0 | 0.0 | 0.0 | 0.00 | 0.02 | 0.00 | 89 | 1009.3 |
| 20260509065023 | 53 | 0 | 0.0 | 0.0 | 0.00 | 0.02 | 0.00 | 89 | 1009.4 |
| 20260509064536 | 53 | 0 | 0.0 | 0.0 | 0.00 | 0.02 | 0.00 | 89 | 1009.5 |
| 20260509064027 | 53 | 0 | 0.0 | 0.0 | 0.00 | 0.02 | 0.00 | 89 | 1009.4 |
| 20260509063526 | 53 | 0 | 0.0 | 0.0 | 0.00 | 0.02 | 0.00 | 89 | 1009.4 |
| 20260509063035 | 53 | 0 | 0.0 | 0.0 | 0.00 | 0.02 | 0.00 | 89 | 1009.5 |
| 20260509062526 | 53 | 0 | 0.0 | 0.0 | 0.00 | 0.02 | 0.00 | 89 | 1009.4 |
| 20260509062026 | 53 | 0 | 0.0 | 0.0 | 0.00 | 0.02 | 0.00 | 89 | 1009.5 |
| 20260509061542 | 53 | 0 | 0.0 | 0.0 | 0.00 | 0.02 | 0.00 | 89 | 1009.5 |
| 20260509061023 | 53 | 0 | 0.0 | 0.0 | 0.00 | 0.02 | 0.00 | 89 | 1009.6 |
| 20260509060521 | 53 | 0 | 0.0 | 0.0 | 0.00 | 0.02 | 0.00 | 89 | 1009.6 |
| 20260509060038 | 53 | 0 | 0.0 | 0.0 | 0.00 | 0.02 | 0.00 | 89 | 1009.7 |
| 20260509055523 | 53 | 0 | 0.0 | 0.0 | 0.00 | 0.02 | 0.00 | 89 | 1009.6 |
| 20260509055024 | 53 | 0 | 0.0 | 0.0 | 0.00 | 0.02 | 0.00 | 89 | 1009.6 |
| 20260509054540 | 53 | 0 | 0.0 | 0.0 | 0.00 | 0.02 | 0.00 | 89 | 1009.7 |
| 20260509054024 | 53 | 0 | 0.0 | 0.0 | 0.00 | 0.02 | 0.00 | 89 | 1009.7 |
| 20260509053521 | 54 | 0 | 0.0 | 0.0 | 0.00 | 0.02 | 0.00 | 89 | 1009.6 |
| 20260509053058 | 54 | 0 | 0.0 | 0.0 | 0.00 | 0.02 | 0.00 | 89 | 1009.6 |
| 20260509052525 | 54 | 0 | 0.0 | 0.0 | 0.00 | 0.02 | 0.00 | 89 | 1009.7 |
| 20260509052023 | 54 | 0 | 0.0 | 0.0 | 0.00 | 0.02 | 0.00 | 89 | 1009.7 |
| 20260509051536 | 54 | 0 | 0.0 | 0.0 | 0.00 | 0.02 | 0.00 | 89 | 1009.8 |
| 20260509051025 | 54 | 0 | 0.0 | 0.0 | 0.00 | 0.02 | 0.00 | 89 | 1009.8 |
| 20260509050523 | 53 | 0 | 0.0 | 0.0 | 0.00 | 0.02 | 0.00 | 89 | 1009.8 |
| 20260509050037 | 53 | 0 | 0.0 | 0.0 | 0.00 | 0.02 | 0.00 | 89 | 1009.8 |
| 20260509045524 | 53 | 0 | 0.0 | 0.0 | 0.00 | 0.02 | 0.02 | 89 | 1009.7 |
| 20260509045024 | 53 | 0 | 0.0 | 0.0 | 0.00 | 0.02 | 0.02 | 89 | 1009.6 |
| 20260509044539 | 54 | 0 | 0.0 | 0.0 | 0.00 | 0.02 | 0.02 | 89 | 1009.6 |
| 20260509044024 | 54 | 0 | 0.0 | 0.0 | 0.00 | 0.02 | 0.02 | 89 | 1009.5 |
| 20260509043522 | 54 | 0 | 0.0 | 0.0 | 0.00 | 0.02 | 0.02 | 89 | 1009.6 |
| 20260509043048 | 54 | 0 | 0.0 | 0.0 | 0.00 | 0.02 | 0.02 | 89 | 1009.6 |
| 20260509042524 | 54 | 0 | 0.0 | 0.0 | 0.00 | 0.02 | 0.02 | 89 | 1009.6 |
| 20260509042025 | 54 | 0 | 0.0 | 0.0 | 0.00 | 0.02 | 0.02 | 89 | 1009.5 |
| 20260509041550 | 54 | 0 | 0.0 | 0.0 | 0.00 | 0.02 | 0.02 | 89 | 1009.5 |
| 20260509041023 | 54 | 0 | 0.0 | 0.0 | 0.00 | 0.02 | 0.02 | 89 | 1009.6 |
| 20260509040524 | 54 | 0 | 0.0 | 0.0 | 0.00 | 0.02 | 0.02 | 89 | 1009.6 |
| 20260509040035 | 54 | 0 | 0.0 | 0.0 | 0.00 | 0.02 | 0.02 | 89 | 1009.6 |
| 20260509035524 | 55 | 0 | 0.0 | 0.0 | 0.00 | 0.02 | 0.02 | 89 | 1009.6 |
| 20260509035026 | 55 | 0 | 0.0 | 0.0 | 0.00 | 0.02 | 0.02 | 89 | 1009.8 |
| 20260509034559 | 55 | 0 | 0.0 | 0.0 | 0.00 | 0.02 | 0.02 | 89 | 1009.7 |
| 20260509034024 | 55 | 0 | 0.0 | 0.0 | 0.00 | 0.02 | 0.02 | 89 | 1009.6 |
| 20260509033525 | 55 | 0 | 0.0 | 0.0 | 0.00 | 0.02 | 0.02 | 88 | 1009.6 |
| 20260509033037 | 55 | 0 | 0.0 | 0.0 | 0.00 | 0.02 | 0.02 | 89 | 1009.6 |
| 20260509032524 | 55 | 0 | 0.0 | 0.0 | 0.00 | 0.02 | 0.02 | 89 | 1009.6 |
| 20260509032023 | 55 | 0 | 0.0 | 0.0 | 0.00 | 0.02 | 0.02 | 89 | 1009.5 |
| 20260509031539 | 55 | 0 | 0.0 | 0.0 | 0.00 | 0.02 | 0.02 | 88 | 1009.5 |
| 20260509031024 | 55 | 0 | 0.0 | 0.0 | 0.00 | 0.02 | 0.02 | 88 | 1009.6 |
| 20260509030526 | 55 | 0 | 0.0 | 0.0 | 0.00 | 0.02 | 0.02 | 88 | 1009.5 |
| 20260509030036 | 55 | 0 | 0.0 | 0.0 | 0.00 | 0.02 | 0.02 | 88 | 1009.6 |
| 20260509025524 | 56 | 0 | 0.0 | 0.0 | 0.00 | 0.02 | 0.02 | 88 | 1009.6 |
| 20260509025024 | 56 | 0 | 0.0 | 0.0 | 0.00 | 0.02 | 0.02 | 88 | 1009.5 |
| 20260509024536 | 56 | 0 | 0.0 | 0.0 | 0.00 | 0.02 | 0.02 | 88 | 1009.4 |
| 20260509024028 | 56 | 0 | 0.0 | 0.0 | 0.00 | 0.02 | 0.02 | 88 | 1009.3 |
| 20260509023526 | 56 | 0 | 0.0 | 0.0 | 0.00 | 0.02 | 0.02 | 88 | 1009.2 |
| 20260509023040 | 56 | 0 | 0.0 | 0.0 | 0.00 | 0.02 | 0.02 | 87 | 1009.2 |
| 20260509022525 | 57 | 0 | 0.0 | 0.0 | 0.00 | 0.02 | 0.02 | 87 | 1009.2 |
| 20260509022024 | 57 | 0 | 0.0 | 0.0 | 0.00 | 0.02 | 0.02 | 87 | 1009.0 |
| 20260509021538 | 57 | 0 | 0.0 | 0.0 | 0.00 | 0.02 | 0.02 | 87 | 1008.9 |
| 20260509021025 | 58 | 0 | 0.0 | 0.0 | 0.00 | 0.02 | 0.02 | 87 | 1009.0 |
| 20260509020523 | 58 | 0 | 0.0 | 0.0 | 0.00 | 0.02 | 0.02 | 86 | 1009.0 |
| 20260509020047 | 58 | 0 | 0.0 | 0.0 | 0.00 | 0.02 | 0.02 | 86 | 1009.0 |
| 20260509015526 | 59 | 0 | 0.0 | 0.0 | 0.00 | 0.02 | 0.02 | 86 | 1008.8 |
| 20260509015025 | 59 | 0 | 0.0 | 0.0 | 0.00 | 0.02 | 0.02 | 85 | 1008.8 |
| 20260509014535 | 59 | 0 | 0.0 | 0.0 | 0.00 | 0.02 | 0.02 | 84 | 1008.8 |
| 20260509014027 | 60 | 0 | 0.0 | 0.0 | 0.00 | 0.02 | 0.02 | 83 | 1009.0 |
| 20260509013524 | 60 | 0 | 0.0 | 0.0 | 0.00 | 0.02 | 0.02 | 83 | 1008.7 |
| 20260509013050 | 61 | 0 | 0.0 | 0.0 | 0.00 | 0.02 | 0.02 | 82 | 1008.7 |
| 20260509012527 | 61 | 0 | 0.0 | 0.0 | 0.00 | 0.02 | 0.02 | 81 | 1008.6 |
| 20260509012023 | 62 | 0 | 0.0 | 0.0 | 0.00 | 0.02 | 0.02 | 81 | 1008.5 |
| 20260509011541 | 62 | 0 | 0.0 | 0.0 | 0.00 | 0.02 | 0.02 | 80 | 1008.5 |
| 20260509011025 | 63 | 0 | 0.0 | 0.0 | 0.00 | 0.02 | 0.02 | 80 | 1008.4 |
| 20260509010524 | 63 | 0 | 0.0 | 0.0 | 0.00 | 0.02 | 0.02 | 79 | 1008.4 |
| 20260509010049 | 63 | 0 | 0.0 | 3.5 | 0.00 | 0.02 | 0.02 | 78 | 1008.4 |
| 20260509005526 | 64 | 0 | 0.0 | 3.5 | 0.00 | 0.02 | 0.02 | 77 | 1008.4 |
| 20260509005028 | 64 | 0 | 0.0 | 2.6 | 0.00 | 0.02 | 0.02 | 77 | 1008.3 |
| 20260509004537 | 65 | 0 | 0.0 | 1.7 | 0.00 | 0.02 | 0.02 | 76 | 1008.3 |
| 20260509004024 | 65 | 0 | 0.0 | 1.7 | 0.00 | 0.02 | 0.02 | 76 | 1008.1 |
| 20260509003526 | 65 | 0 | 0.0 | 1.7 | 0.00 | 0.02 | 0.02 | 76 | 1008.2 |
| 20260509003037 | 65 | 0 | 0.0 | 2.6 | 0.00 | 0.02 | 0.02 | 76 | 1008.1 |
| 20260509002524 | 65 | 320 | 0.0 | 2.6 | 0.00 | 0.02 | 0.02 | 75 | 1008.0 |
| 20260509002024 | 66 | 0 | 0.0 | 2.6 | 0.00 | 0.02 | 0.02 | 74 | 1008.1 |
| 20260509001536 | 66 | 343 | 0.0 | 3.5 | 0.00 | 0.02 | 0.02 | 74 | 1008.0 |
| 20260509001025 | 66 | 0 | 0.9 | 3.5 | 0.00 | 0.02 | 0.02 | 73 | 1007.9 |
| 20260509000524 | 66 | 0 | 0.0 | 2.6 | 0.00 | 0.02 | 0.02 | 74 | 1008.0 |
| 20260509000039 | 66 | 0 | 0.0 | 2.6 | 0.00 | 0.02 | 0.02 | 73 | 1007.9 |
| 20260508235524 | 66 | 0 | 0.0 | 2.6 | 0.00 | 0.02 | 0.02 | 72 | 1007.9 |
| 20260508235025 | 66 | 0 | 0.0 | 3.5 | 0.00 | 0.02 | 0.02 | 73 | 1007.7 |
| 20260508234538 | 66 | 0 | 0.9 | 3.5 | 0.00 | 0.02 | 0.02 | 73 | 1007.7 |
| 20260508234026 | 66 | 11 | 0.0 | 2.6 | 0.00 | 0.02 | 0.02 | 73 | 1007.8 |
| 20260508233528 | 66 | 301 | 0.0 | 7.0 | 0.00 | 0.02 | 0.02 | 73 | 1007.9 |
| 20260508233037 | 65 | 0 | 0.9 | 7.0 | 0.00 | 0.02 | 0.02 | 74 | 1008.0 |
| 20260508232524 | 66 | 0 | 3.5 | 7.0 | 0.00 | 0.02 | 0.02 | 73 | 1008.1 |
| 20260508232024 | 66 | 0 | 0.0 | 5.2 | 0.00 | 0.02 | 0.02 | 74 | 1008.1 |
| 20260508231545 | 66 | 0 | 0.0 | 3.5 | 0.00 | 0.02 | 0.02 | 75 | 1008.1 |
| 20260508231029 | 65 | 297 | 0.0 | 3.5 | 0.00 | 0.02 | 0.02 | 75 | 1008.1 |
| 20260508230524 | 65 | 0 | 0.0 | 3.5 | 0.00 | 0.02 | 0.02 | 74 | 1008.1 |
| 20260508230050 | 64 | 0 | 0.9 | 3.5 | 0.00 | 0.02 | 0.02 | 75 | 1008.1 |
| 20260508225524 | 64 | 300 | 0.9 | 3.5 | 0.00 | 0.02 | 0.02 | 76 | 1008.0 |
| 20260508225025 | 64 | 0 | 0.9 | 2.6 | 0.01 | 0.02 | 0.02 | 76 | 1008.1 |
| 20260508224544 | 64 | 0 | 0.0 | 0.0 | 0.01 | 0.02 | 0.02 | 80 | 1007.9 |
| 20260508224024 | 63 | 0 | 0.0 | 0.0 | 0.01 | 0.02 | 0.02 | 79 | 1007.9 |
| 20260508223524 | 63 | 0 | 0.0 | 0.0 | 0.01 | 0.02 | 0.02 | 78 | 1007.9 |
| 20260508223039 | 63 | 0 | 0.0 | 0.0 | 0.01 | 0.02 | 0.02 | 80 | 1007.8 |
| 20260508222528 | 63 | 0 | 0.0 | 0.9 | 0.01 | 0.02 | 0.02 | 80 | 1007.7 |
| 20260508222026 | 63 | 0 | 0.0 | 0.9 | 0.01 | 0.02 | 0.02 | 81 | 1007.6 |
| 20260508221545 | 63 | 5 | 0.0 | 0.9 | 0.01 | 0.02 | 0.02 | 83 | 1007.5 |
| 20260508221026 | 62 | 0 | 0.0 | 1.7 | 0.01 | 0.02 | 0.02 | 83 | 1007.6 |
| 20260508220525 | 61 | 0 | 0.0 | 2.6 | 0.01 | 0.02 | 0.02 | 84 | 1007.6 |
| 20260508220037 | 61 | 0 | 0.0 | 5.2 | 0.01 | 0.02 | 0.02 | 85 | 1007.4 |
| 20260508215524 | 60 | 0 | 0.0 | 5.2 | 0.01 | 0.02 | 0.02 | 86 | 1007.3 |